Lexington Weather

Lexington, Massachusetts, USA

79°F
7/4/2020 12:52pm 
  • Lexington Conditions: Mostly cloudy
  • Temperature: 79.2°F / 26.2°CWarmer 6.7°F than last hour.
  • Dew Point: 67.3°FIncreased 1.6°Fsince last hour.
  • Relative Humidity: 67%Decreased 12.0% since last hour.
  • Wind: Calm, 10-min avg: Calm, gust: None
  • Barometer: 29.88 in Steady
  • Visibility: 10 miles
  • Rain Today: 0.01 in
  •   

Regional Weather Roundup
for Boston / Norton, MA

        
000
ASUS41 KBOX 031804
RWRBOX

REGIONAL WEATHER ROUNDUP
NATIONAL WEATHER SERVICE BOSTON/NORTON MA
200 PM EDT FRI JUL 03 2020

NOTE:  "FAIR" INDICATES FEW OR NO CLOUDS BELOW 12,000 FEET WITH NO 
SIGNIFICANT WEATHER AND/OR OBSTRUCTIONS TO VISIBILITY.

MAZALL-031900-
EASTERN MASSACHUSETTS
  
CITY           SKY/WX    TMP DP  RH WIND       PRES   REMARKS
BOSTON         CLOUDY    66  61  84 NE14      29.91S                  
6HR MIN TEMP:  66; 6HR MAX TEMP:  71;                                

BEVERLY        CLOUDY    65  60  84 N15G21    29.91S                  
LAWRENCE       CLOUDY    67  60  78 NE12G21   29.94S                  
BEDFORD        CLOUDY    71  61  70 NE15      29.90F                  
BLUE HILL      NOT AVBL                                               
NORWOOD        CLOUDY    71  61  70 NE13      29.89F                  
MARSHFIELD     CLOUDY    66  64  94 N9G17     29.89F                  
PLYMOUTH       NOT AVBL                                               
TAUNTON        CLOUDY    72  63  73 VRB5      29.87S                  
NEW BEDFORD    CLOUDY    76  66  71 N12G21    29.85F                  
$$

MAZALL-031900-
CAPE COD AND THE ISLANDS
  
CITY           SKY/WX    TMP DP  RH WIND       PRES   REMARKS
FALMOUTH       CLOUDY    68  64  88 N12G20    29.86F                  
HYANNIS        CLOUDY    73  66  78 N13G24    29.84S                  
CHATHAM        CLOUDY    70  65  84 NE10G17   29.85F                  
PROVINCETOWN   CLOUDY    67  65  93 NE14      29.88S FOG              
NANTUCKET      CLOUDY    71  67  87 N20       29.84R                  
MARTHAS VNYRD  CLOUDY    73  66  78 NE18      29.84F                  
$$
 
MAZALL-031900-
CENTRAL AND WESTERN MASSACHUSETTS
  
CITY           SKY/WX    TMP DP  RH WIND       PRES   REMARKS
WORCESTER      CLOUDY    68  62  81 E9        29.91F                  
6HR MIN TEMP:  68; 6HR MAX TEMP:  77;                                

FITCHBURG      CLOUDY    70  63  78 VRB5      29.91S                  
ORANGE         CLOUDY    73  66  78 E8        29.90S                  
SPRINGFIELD    RAIN      72  71  95 E6        29.86R FOG              
WESTFIELD      LGT RAIN  73  70  90 VRB5      29.87R                  
NORTH ADAMS    CLOUDY    76  67  73 E6        29.86F                  
PITTSFIELD     PTSUNNY   79  69  71 E3        29.87F                  
$$
 
RIZALL-031900-
RHODE ISLAND
  
CITY           SKY/WX    TMP DP  RH WIND       PRES   REMARKS
PROVIDENCE     PTSUNNY   77  66  68 NE16      29.87F                  
6HR MIN TEMP:  72; 6HR MAX TEMP:  81;                                

NEWPORT        SUNNY     79  65  62 N16       29.85F                  
BLOCK ISLAND   PTSUNNY   73  67  81 NE14G20   29.85F                  
SMITHFIELD     CLOUDY    71  66  84 NE9       29.90S                  
WESTERLY       PTSUNNY   82  67  60 NE6       29.85S                  
$$
 
CTZALL-031900-
CONNECTICUT
  
CITY           SKY/WX    TMP DP  RH WIND       PRES   REMARKS
BRADLEY INTL   CLOUDY    77  69  76 N17       29.85R THUNDER          
6HR MIN TEMP:  77; 6HR MAX TEMP:  87;                                

HARTFORD       CLOUDY    80  70  71 SE9       29.82S                  
BRIDGEPORT     MOSUNNY   85  69  58 SW10      29.82F                  
DANBURY        PTSUNNY   84  70  61 NE3       29.86F                  
GROTON         TSTM      74  71  91 N7        29.84R FOG              
NEW HAVEN      MOSUNNY   85  72  65 SW3       29.82F HX  91           
CHESTER        PTSUNNY   81  72  74 E14       29.85S                  
MERIDEN        PTSUNNY   86  67  52 VRB6      29.82F                  
WILLIMANTIC    LGT RAIN  74  70  87 E8        29.86S                  
OXFORD         MOSUNNY   82  70  66 N5        29.87F                  
$$

MEZ002-015-021-024-NHZ003-005-008-011-012-014-VTZ005-008-031900-
NORTHERN NEW ENGLAND
  
CITY           SKY/WX    TMP DP  RH WIND       PRES   REMARKS
PORTLAND ME    CLOUDY    67  57  70 E15G22    29.95S                  
6HR MIN TEMP:  63; 6HR MAX TEMP:  70; 6HR PCP:  0.03;                

BANGOR ME      PTSUNNY   73  58  59 CALM      29.95F                  
CONCORD NH     CLOUDY    71  62  73 E9        29.92S                  
MANCHESTER NH  CLOUDY    71  61  70 E7        29.91S                  
NASHUA NH      CLOUDY    73  65  75 E12G17    29.92S                  
PORTSMOUTH NH  CLOUDY    69  57  65 NE14G23   29.92                   
JAFFREY NH     CLOUDY    68  64  87 VRB5      29.93S                  
KEENE NH       CLOUDY    73  66  78 E6        29.90R                  
BURLINGTON VT  MOSUNNY   82  64  54 NW12      29.87S                  
MT. WASHINGTON FOG       55  55 100 NW10G22     N/A  VSB 1/16         
$$

NYZ052-076-031900-
EASTERN NEW YORK
  
CITY           SKY/WX    TMP DP  RH WIND       PRES   REMARKS
ALBANY         TSTM      81  70  69 N7        29.86F                  
6HR MIN TEMP:  76; 6HR MAX TEMP:  83; 6HR PCP:  0.01;                

NEW YORK CITY  PTSUNNY   88  64  44 NE7       29.82F                  
6HR MIN TEMP:  82; 6HR MAX TEMP:  90;                                

$$
 
ANZALL-031900-
MARINE OBSERVATIONS
  
STATION/POSITION TIME  TEMP    WIND        PRES    VSBY  WAVE
                       AIR SEA DIR/SP/G                  HT/PER
                 (UTC) (F)     (DEG/KT/KT) (MB)    (MI)  (FT/S)
BOSTON BUOY      1650   63 65   20/ 16/ 19 1011.1          5/ 6
BUZZARDS BAY     1700           50/ 14/ 14 1011.7S
NANTUCKET SOUND  1740   68 71  360/ 16/ 17 1010.1R
MASS BAY-STELLWA 1704   61      50/ 16/ 19 1010.3S  1 7/8  6/ 6
ISLE OF SHOALS   1700   62      40/ 20/ 22 1012.5R
S OF BLOCK IS    1726      71                N/A           4/ 8
$$

......................KEY.........................
  SKY/WX - SKY CONDITION/PRESENT WEATHER
  TMP    - TEMPERATURE IN FAHRENHEIT
  DWPT   - DEWPOINT IN FAHRENHEIT
  RH     - RELATIVE HUMIDITY IN PERCENT
  WIND   - DIRECTION AND SPEED IN MPH
  PRES   - MEAN SEA LEVEL PRESSURE IN INCHES OF HG
  WCI    - WIND CHILL INDEX
  VSB    - VISIBILITY IN MILES
  HX     - HEAT INDEX
  TC     - TEMPERATURE IN CELSIUS
  VRB    - VARIABLE WIND DIRECTION
  N/A    - NOT AVAILABLE
  
      

Other recent Regional Weather Roundups

Sat Jul 4, 12:05pm

Sat Jul 4, 11:04am

Sat Jul 4, 10:04am

Sat Jul 4, 9:04am

Sat Jul 4, 8:04am

Sat Jul 4, 7:04am

Sat Jul 4, 6:04am

Sat Jul 4, 5:04am

Sat Jul 4, 4:04am

Sat Jul 4, 3:05am

Sat Jul 4, 2:04am

Sat Jul 4, 1:04am

Sat Jul 4, 12:04am

Fri Jul 3, 11:04pm

Fri Jul 3, 10:04pm

Fri Jul 3, 9:04pm

Fri Jul 3, 8:04pm

Fri Jul 3, 7:04pm

Fri Jul 3, 6:04pm

Fri Jul 3, 5:04pm

Fri Jul 3, 4:04pm

Fri Jul 3, 3:04pm

Fri Jul 3, 1:04pm

Fri Jul 3, 12:04pm

Fri Jul 3, 11:04am

Fri Jul 3, 10:04am

Fri Jul 3, 9:04am

Fri Jul 3, 8:04am

Fri Jul 3, 7:04am

Fri Jul 3, 6:04am

Fri Jul 3, 5:04am

Fri Jul 3, 4:04am

Fri Jul 3, 3:04am

Fri Jul 3, 2:04am

Fri Jul 3, 1:04am

Fri Jul 3, 12:04am

Thu Jul 2, 11:05pm

Thu Jul 2, 10:04pm

Thu Jul 2, 9:04pm

Thu Jul 2, 8:04pm

Thu Jul 2, 7:05pm

Thu Jul 2, 6:04pm

Thu Jul 2, 5:05pm

Thu Jul 2, 4:04pm

Thu Jul 2, 3:04pm

Thu Jul 2, 2:04pm

Thu Jul 2, 1:05pm

Thu Jul 2, 12:04pm

Thu Jul 2, 11:04am

Thu Jul 2, 10:05am

Thu Jul 2, 9:05am

Thu Jul 2, 8:04am

Thu Jul 2, 7:04am

Thu Jul 2, 6:05am

Thu Jul 2, 5:04am

Thu Jul 2, 4:04am

Thu Jul 2, 3:04am

Thu Jul 2, 2:04am

Thu Jul 2, 1:04am

Thu Jul 2, 12:05am

Wed Jul 1, 11:05pm

Wed Jul 1, 10:04pm

Wed Jul 1, 9:04pm

Wed Jul 1, 8:04pm

Wed Jul 1, 7:04pm

Wed Jul 1, 6:04pm

Wed Jul 1, 5:05pm

Wed Jul 1, 4:04pm

Wed Jul 1, 3:04pm

Wed Jul 1, 2:04pm

Wed Jul 1, 1:04pm

Wed Jul 1, 12:04pm

Wed Jul 1, 11:04am

Wed Jul 1, 10:04am

Wed Jul 1, 9:04am

Wed Jul 1, 8:05am

Wed Jul 1, 7:04am

Wed Jul 1, 6:04am

Wed Jul 1, 5:04am

Wed Jul 1, 4:04am

Wed Jul 1, 3:04am

Wed Jul 1, 2:04am

Wed Jul 1, 1:04am

Wed Jul 1, 12:04am

Tue Jun 30, 11:04pm

Tue Jun 30, 10:05pm

Tue Jun 30, 9:04pm

Tue Jun 30, 8:05pm

Tue Jun 30, 7:05pm

Tue Jun 30, 6:04pm

Tue Jun 30, 5:04pm

Tue Jun 30, 4:04pm

Tue Jun 30, 3:04pm

Tue Jun 30, 2:04pm

Tue Jun 30, 1:04pm

Tue Jun 30, 12:04pm

Tue Jun 30, 11:04am

Tue Jun 30, 10:04am

Tue Jun 30, 9:04am

Tue Jun 30, 8:04am

Tue Jun 30, 7:04am

Tue Jun 30, 6:04am

Tue Jun 30, 5:04am

Tue Jun 30, 4:04am

Tue Jun 30, 3:04am

Tue Jun 30, 2:04am

Tue Jun 30, 1:04am

Tue Jun 30, 12:04am

Mon Jun 29, 11:04pm

Mon Jun 29, 10:05pm

Mon Jun 29, 9:04pm

Mon Jun 29, 8:05pm

Mon Jun 29, 7:04pm

Mon Jun 29, 6:04pm

Mon Jun 29, 5:04pm

Mon Jun 29, 4:05pm

Mon Jun 29, 3:04pm

Mon Jun 29, 2:04pm

Mon Jun 29, 1:04pm

Mon Jun 29, 12:04pm

Mon Jun 29, 11:04am

Mon Jun 29, 10:04am

Mon Jun 29, 9:04am

Mon Jun 29, 8:04am

Mon Jun 29, 7:04am

Mon Jun 29, 6:04am

Mon Jun 29, 5:04am

Mon Jun 29, 4:04am

Mon Jun 29, 3:04am

Mon Jun 29, 2:04am

Mon Jun 29, 1:04am

Mon Jun 29, 12:04am

Sun Jun 28, 11:05pm

Sun Jun 28, 10:04pm

Sun Jun 28, 9:05pm

Sun Jun 28, 8:04pm

Sun Jun 28, 7:04pm

Sun Jun 28, 6:04pm

Sun Jun 28, 5:04pm

Sun Jun 28, 4:04pm

Sun Jun 28, 3:04pm

Sun Jun 28, 2:05pm

Sun Jun 28, 1:04pm

Sun Jun 28, 12:04pm

Sun Jun 28, 11:04am

Sun Jun 28, 10:04am

Sun Jun 28, 9:04am

Sun Jun 28, 8:04am

Sun Jun 28, 7:04am

Sun Jun 28, 6:04am

Sun Jun 28, 5:04am

Sun Jun 28, 4:04am

Sun Jun 28, 3:04am

Sun Jun 28, 2:05am

Sun Jun 28, 1:04am

Sun Jun 28, 12:05am

Sat Jun 27, 11:04pm

Sat Jun 27, 10:04pm

Sat Jun 27, 9:04pm

Sat Jun 27, 8:04pm

Sat Jun 27, 7:04pm

Sat Jun 27, 6:04pm

Sat Jun 27, 5:04pm

Sat Jun 27, 4:05pm

Sat Jun 27, 3:04pm

Sat Jun 27, 2:04pm

Sat Jun 27, 1:05pm

Meta data:

ID: 0d9a9ea8-1782-40f5-9d18-a1018a5ad078
Link: https://api.weather.gov/products/0d9a9ea8-1782-40f5-9d18-a1018a5ad078